Regional Weather Roundup
Issued by NWS

Home | Current Version | Previous Version | Graphics & Text | Print | Product List | Glossary On
Versions: 1 2 3 4 5 6 7 8 9 10 11 12 13 14 15 16 17 18 19 20 21 22 23 24 25 26 27 28 29 30 31 32 33 34 35 36 37 38 39 40 41 42 43 44 45 46 47 48 49 50
000
ASUS43 KOAX 012310
RWRNE

WEATHER ROUNDUP FOR NEBRASKA
NATIONAL WEATHER SERVICE OMAHA NE
600 PM CDT WED JUL 01 2015

NOTES: SATELLITE DATA IS BEING USED TO AUGMENT CLOUD COVER ABOVE
       12000 FEET.
       "FAIR" INDICATES FEW OR NO CLOUDS BELOW 12,000 FEET WITH NO
       SIGNIFICANT WEATHER AND/OR OBSTRUCTIONS TO VISIBILITY.

  * THESE STATIONS DO NOT REPORT WEATHER SUCH AS RAIN...SNOW OR FOG.

NEZ001>004-019>022-054>056-020000-
NEBRASKA PANHANDLE

CITY           SKY/WX    TMP DP  RH WIND       PRES   REMARKS
SCOTTSBLUFF    SUNNY     90  52  27 E8        29.99S
ALLIANCE       SUNNY     89  56  32 NE7       30.00F
CHADRON        SUNNY     87  62  43 NE12      29.97F
KIMBALL          N/A    N/A N/A N/A MISG        N/A
SIDNEY         SUNNY     93  52  24 NE7       30.03F HX  90
$$

NEZ057>060-069>072-079>082-020000-
SOUTHWEST NEBRASKA

CITY           SKY/WX    TMP DP  RH WIND       PRES   REMARKS
NORTH PLATTE   SUNNY     92  55  28 N17       29.91F HX  90
IMPERIAL       SUNNY     95  51  22 NE10      29.94F HX  92
LEXINGTON      SUNNY     88  65  46 E8        29.90S HX  90
MCCOOK         SUNNY     94  63  35 E9        29.89F HX  95
OGALLALA       MOSUNNY   92  53  26 N10       29.96R
$$

NEZ005>010-023>029-035>040-094-020000-
NORTH CENTRAL NEBRASKA

CITY           SKY/WX    TMP DP  RH WIND       PRES   REMARKS
VALENTINE      MOSUNNY   85  64  49 N13G21    29.93S
AINSWORTH      MOSUNNY   87  63  44 N13G18    29.92S
BROKEN BOW     MOSUNNY   85  69  58 E8        29.90F
O`NEILL        SUNNY     82  67  60 CALM      29.91S
ORD            SUNNY     86  68  54 E3        29.88S
THEDFORD       SUNNY     88  61  40 N14       29.94S
$$

NEZ041-046>049-061>064-073>077-083>087-020000-
SOUTH CENTRAL NEBRASKA

CITY           SKY/WX    TMP DP  RH WIND       PRES   REMARKS
GRAND ISLAND   SUNNY     84  67  56 NE5       29.88F
AURORA         MOSUNNY   84  68  57 NE7       29.87S
HASTINGS       SUNNY     85  69  58 N7        29.88S
HEBRON         SUNNY     86  67  53 NE5       29.84S
HOLDREGE       SUNNY     85  65  51 NE9       29.90S
KEARNEY *      SUNNY     82  68  61 E6        29.89F
YORK           SUNNY     84  68  58 NE6       29.87R
$$

NEZ011>018-030>034-042>045-020000-
NORTHEAST NEBRASKA

CITY           SKY/WX    TMP DP  RH WIND       PRES   REMARKS
NORFOLK        SUNNY     80  67  64 E9        29.88F
ALBION         CLOUDY    82  66  58 E8        29.89S
BLAIR          PTSUNNY   79  66  63 NE13      29.87S
COLUMBUS *     CLOUDY   N/A N/A N/A MISG        N/A
FREMONT        PTSUNNY   82  65  56 E16       29.87S
TEKAMAH        MOSUNNY   82  67  60 NE8       29.87S
WAYNE          MOSUNNY   78  68  72 E9        29.90S
$$

NEZ050>053-065>068-078-088>093-020000-
SOUTHEAST NEBRASKA

CITY           SKY/WX    TMP DP  RH WIND       PRES   REMARKS
LINCOLN        PTSUNNY   85  70  60 E10       29.84S
OMAHA EPPLEY   MOSUNNY   83  69  62 E14       29.86S
BEATRICE       PTSUNNY   85  71  61 NE7       29.84R HX  90
FALLS CITY     PTSUNNY   84  73  69 E7        29.82S HX  90
NEBRASKA CITY  PTSUNNY   82  67  61 E10       29.84S
PLATTSMOUTH    PTSUNNY   82  69  64 NE10      29.85F
$$

NEZ044-045-051>053-067-020000-
OMAHA AREA

CITY           SKY/WX    TMP DP  RH WIND       PRES   REMARKS
OMAHA EPPLEY   MOSUNNY   83  69  62 E14       29.86S
BLAIR          PTSUNNY   79  66  63 NE13      29.87S
FREMONT        PTSUNNY   82  65  56 E16       29.87S
MILLARD        MOSUNNY   83  70  64 E8        29.85S
OFFUTT AFB     MOSUNNY   82  66  57 NE10      29.86F
PLATTSMOUTH    PTSUNNY   82  69  64 NE10      29.85F
WAHOO          CLOUDY    83  68  61 NE12      29.85S
$$



USA.gov is the U.S. government's official web portal to all federal, state and local government web resources and services.